Location: Mat�lon
(46.2791°N, 7.1028°E)
Time: 01:41:40
(UTC+00:00)

Cosmos 1092 Rocket - Pass Details

Date: 18 September 2020
Orbit: 955 x 994 km, 82.9° (Epoch: 31 October)

Event Time Altitude Azimuth Distance (km) Brightness Sun altitude
Rises 19:49:11 0° 351° (N) 3,645 7.5 -22.8°
Reaches altitude 10° 19:51:41 10° 352° (N) 2,697 6.8 -23.2°
Maximum altitude 19:57:52 88° 79° (E) 968 3.9 -24.1°
Enters shadow 20:00:15 41° 171° (S) 1,372 4.4 -24.4°
